ONEWEB-0024 (45137 NORAD) Tracking and Keplerian Element Data

This shows tracking and keplerian element data for the satellite.

Feedback or suggestion? Click here.




ElementValue
Catalog45137
NameONEWEB-0024
Epoch Orbit3895
Epoch Day298.25001157
Epoch Year2020
RAAN86.3306
Inclination87.9381
Eccentricity0.0020574
Argument of Perigee122.2088
Mean Anonmoly340.2915
Mean Motion13.24922651
Decay Rate1.3E-07
L11 45137U 20008G 20298.25001157 .00000013 00000-0 00000+0 0 9995
L22 45137 87.9381 86.3306 0020574 122.2088 340.2915 13.24922651 38959

Live tracking and technical data element details for ONEWEB-0024 (NORAD 45137). ONEWEB-0024 can be tracked NOW for your location showing map with azimuth and elevation plus other details from your city location.

Track the satellite on the map from your city or location and see movement details for azimuth, elevation, latitude, longitude, range, height, and movement on the map or in text.







IsCatalogInMostPopularTable: catalog: 45137, numindb: 53
Update: records affected: 1



GetName: 45137 ONEWEB-0024

Hit Count: updated at: Sat, 24 Oct 2020 23:22:20 GMT